This is the latest recevied weather packets stored in our database for station/object N9CQL. If no packets are shown the sender has not sent any weather packets the latest 10 day(s).
| Time | Temp. | Humidity | Pressure | Rain* | Wind** | Luminosity | Snow |
|---|---|---|---|---|---|---|---|
| 1778094946 | 13.89° C | 41% | 1012.4 hPa | 0 mm | - | 236 W/m² | - |
| 1778094642 | 14.44° C | 38% | 1012.5 hPa | 0 mm | - | 201 W/m² | - |
| 1778094339 | 15° C | 41% | 1012.5 hPa | 0 mm | - | 223 W/m² | - |
| 1778094036 | 13.89° C | 42% | 1012.6 hPa | 0 mm | - | 329 W/m² | - |
| 1778093734 | 13.33° C | 40% | 1012.5 hPa | 0 mm | - | 249 W/m² | - |
| 1778093430 | 13.33° C | 39% | 1012.6 hPa | 0 mm | - | 189 W/m² | - |
| 1778093128 | 13.89° C | 41% | 1012.8 hPa | 0 mm | - | 224 W/m² | - |
| 1778092825 | 13.89° C | 41% | 1012.5 hPa | 0 mm | - | 265 W/m² | - |
| 1778092520 | 13.89° C | 40% | 1012.5 hPa | 0 mm | - | 258 W/m² | - |
| 1778092217 | 13.89° C | 40% | 1012.5 hPa | 0 mm | - | 335 W/m² | - |
| 1778091915 | 13.89° C | 39% | 1012.6 hPa | 0 mm | - | 320 W/m² | - |
| 1778091611 | 14.44° C | 38% | 1012.5 hPa | 0 mm | - | 251 W/m² | - |
| 1778091309 | 13.89° C | 39% | 1012.8 hPa | 0 mm | - | 331 W/m² | - |
| 1778091006 | 13.89° C | 40% | 1012.5 hPa | 0 mm | - | 390 W/m² | - |
| 1778090703 | 13.89° C | 41% | 1012.7 hPa | 0 mm | - | 246 W/m² | - |
| 1778090399 | 13.89° C | 40% | 1012.6 hPa | 0 mm | - | 302 W/m² | - |
| 1778090095 | 13.89° C | 41% | 1012.5 hPa | 0 mm | - | 323 W/m² | - |
| 1778089786 | 13.89° C | 41% | 1012.7 hPa | 0 mm | - | 302 W/m² | - |
| 1778089485 | 13.89° C | 41% | 1012.7 hPa | 0 mm | - | 340 W/m² | - |
| 1778089181 | 14.44° C | 42% | 1012.8 hPa | 0 mm | - | 261 W/m² | - |
| 1778088879 | 13.89° C | 41% | 1012.7 hPa | 0 mm | - | 419 W/m² | - |
| 1778088575 | 15° C | 41% | 1012.8 hPa | 0 mm | - | 334 W/m² | - |
| 1778088272 | 15° C | 38% | 1012.8 hPa | 0 mm | - | 488 W/m² | - |
| 1778087969 | 13.33° C | 40% | 1012.9 hPa | 0 mm | - | 563 W/m² | - |
| 1778087666 | 13.33° C | 40% | 1012.8 hPa | 0 mm | - | 239 W/m² | - |
* Rain latest hour (hover to see other rain measurements)
** Current wind speed in m/s (hover to see current wind gust speed)